TimeEST,TemperatureF,Dew PointF,Humidity,Sea Level PressureIn,VisibilityMPH,Wind Direction,Wind SpeedMPH,Gust SpeedMPH,PrecipitationIn,Events,Conditions,WindDirDegrees,DateUTC
12:53 AM,72.0,64.0,76,30.05,10.0,North,4.6,-,N/A,,Mostly Cloudy,360,2012-11-18 05:53:00
1:53 AM,71.1,64.9,81,30.04,10.0,North,4.6,-,N/A,,Scattered Clouds,350,2012-11-18 06:53:00
2:53 AM,70.0,64.0,81,30.04,10.0,NNW,4.6,-,N/A,,Partly Cloudy,330,2012-11-18 07:53:00
3:53 AM,69.1,64.0,84,30.03,10.0,North,5.8,-,N/A,,Partly Cloudy,350,2012-11-18 08:53:00
4:53 AM,69.1,64.0,84,30.04,10.0,NNW,4.6,-,N/A,,Scattered Clouds,340,2012-11-18 09:53:00
5:53 AM,69.1,64.9,87,30.04,10.0,Calm,Calm,-,N/A,,Scattered Clouds,0,2012-11-18 10:53:00
6:53 AM,69.1,64.9,87,30.07,10.0,NW,6.9,-,N/A,,Mostly Cloudy,320,2012-11-18 11:53:00
7:53 AM,71.1,66.0,84,30.08,10.0,NNW,6.9,-,N/A,,Scattered Clouds,340,2012-11-18 12:53:00
8:53 AM,73.9,64.9,73,30.10,10.0,North,6.9,-,N/A,,Scattered Clouds,350,2012-11-18 13:53:00
9:53 AM,78.1,66.0,66,30.09,10.0,NE,10.4,16.1,N/A,,Scattered Clouds,40,2012-11-18 14:53:00
10:53 AM,78.1,66.0,66,30.09,10.0,NE,9.2,18.4,N/A,,Scattered Clouds,40,2012-11-18 15:53:00
11:53 AM,81.0,64.0,56,30.07,10.0,NE,12.7,18.4,N/A,,Mostly Cloudy,40,2012-11-18 16:53:00
12:53 PM,80.1,63.0,56,30.06,10.0,NE,11.5,19.6,N/A,,Mostly Cloudy,40,2012-11-18 17:53:00
1:53 PM,80.1,63.0,56,30.04,10.0,NE,15.0,21.9,N/A,,Mostly Cloudy,50,2012-11-18 18:53:00
2:53 PM,79.0,63.0,58,30.04,10.0,NNE,6.9,19.6,N/A,,Mostly Cloudy,30,2012-11-18 19:53:00
3:53 PM,79.0,63.0,58,30.04,10.0,NNE,10.4,17.3,N/A,,Mostly Cloudy,30,2012-11-18 20:53:00
4:53 PM,77.0,63.0,62,30.05,10.0,NNE,10.4,17.3,N/A,,Scattered Clouds,30,2012-11-18 21:53:00
5:53 PM,75.9,64.0,67,30.07,10.0,Variable,4.6,-,N/A,,Scattered Clouds,0,2012-11-18 22:53:00
6:53 PM,75.0,64.0,69,30.09,10.0,North,8.1,-,N/A,,Mostly Cloudy,360,2012-11-18 23:53:00
7:53 PM,73.0,64.0,73,30.10,10.0,NNW,6.9,-,N/A,,Scattered Clouds,340,2012-11-19 00:53:00
8:53 PM,71.1,64.0,78,30.12,10.0,Variable,5.8,-,N/A,,Scattered Clouds,0,2012-11-19 01:53:00
9:53 PM,70.0,64.0,81,30.12,10.0,North,4.6,-,N/A,,Scattered Clouds,360,2012-11-19 02:53:00
10:53 PM,69.1,64.0,84,30.11,10.0,North,5.8,-,N/A,,Mostly Cloudy,360,2012-11-19 03:53:00
11:53 PM,69.1,64.0,84,30.11,10.0,NNW,6.9,-,N/A,,Mostly Cloudy,340,2012-11-19 04:53:00